Location: Battery Park City
(40.7115°N, 74.0163°W)
Time: 08:04:43
(UTC+00:00)

Cosmos 2237 Rocket - Pass Details

Date: 08 December 2019
Orbit: 836 x 849 km, 71.0° (Epoch: 21 January)

Event Time Altitude Azimuth Distance (km) Brightness Sun altitude
Rises 23:03:52 0° 214° (SW) 3,398 6.1 -17.5°
Reaches altitude 10° 23:06:21 10° 219° (SW) 2,466 5.4 -17.9°
Maximum altitude 23:11:55 56° 297° (WNW) 1,002 2.8 -19.0°
Enters shadow 23:17:19 11° 15° (NNE) 2,407 4.3 -20.0°
